Weather History for KDLL - May, 2013

Change the Weather History Date:

Monday, May 13, 2013

  Actual Average Record
Temperature  
Mean Temperature 46 °F -  
Max Temperature 63 °F 67 °F 87 °F (1991)
Min Temperature 29 °F 41 °F 29 °F (1974)
Degree Days  
Heating Degree Days 19    
Moisture  
Dew Point 26 °F    
Average Humidity 46    
Maximum Humidity 88    
Minimum Humidity 20    
Precipitation  
Precipitation 0.00 in - - ()
Sea Level Pressure  
Sea Level Pressure 30.06 in    
Wind  
Wind Speed 5 mph (South)    
Max Wind Speed 16 mph    
Max Gust Speed 21 mph    
Visibility 10 miles    
Events      
Averages and records for this station are not official NWS values.
T = Trace of Precipitation, MM = Missing Value Source: NWS Daily Summary

Daily Weather History Graph

Daily Weather History Graph

Search for Another Location

Airport or City:

Trip Planner

Search our weather history database for the weather conditions in past years. The results will help you decide how hot, cold, wet, or windy it might be!

Date:

Astronomy

May. 13, 2013 Rise Set
Actual Time 5:36 AM CDT 8:15 PM CDT
Civil Twilight 5:03 AM CDT 8:48 PM CDT
Nautical Twilight 4:22 AM CDT 9:29 PM CDT
Astronomical Twilight 3:35 AM CDT 10:16 PM CDT
Moon 8:21 AM CDT (5/13) 11:24 PM CDT (5/13)
Length of Visible Light 15h 44m
Length of Day
14h 38m
Waxing Crescent, 12% of the Moon is Illuminated
May 13
Waxing Crescent
May 17
First Quarter
May 24
Full
May 31
Last Quarter
Jun 8
New

Hourly Weather History & Observations

Time (CDT) Temp. Windchill Dew Point Humidity Pressure Visibility Wind Dir Wind Speed Gust Speed Precip Events Conditions
12:15 AM 36.9 °F 31.4 °F 25.0 °F 62% 30.11 in 10.0 mi NE 6.9 mph 10.4 mph N/A   Clear
12:35 AM 38.3 °F 33.2 °F 23.5 °F 55% 30.11 in 10.0 mi NE 6.9 mph - N/A   Clear
12:55 AM 38.7 °F 32.9 °F 23.4 °F 54% 30.11 in 10.0 mi ENE 8.1 mph - N/A   Clear
1:15 AM 37.9 °F 32.7 °F 23.5 °F 56% 30.12 in 10.0 mi ENE 6.9 mph - N/A   Clear
1:35 AM 37.0 °F 33.3 °F 23.4 °F 58% 30.12 in 10.0 mi ENE 4.6 mph - N/A   Clear
1:55 AM 35.8 °F 31.9 °F 24.3 °F 63% 30.12 in 10.0 mi East 4.6 mph - N/A   Clear
2:15 AM 35.6 °F 30.7 °F 24.6 °F 64% 30.12 in 10.0 mi East 5.8 mph - N/A   Clear
2:35 AM 35.6 °F 32.8 °F 25.2 °F 66% 30.12 in 10.0 mi East 3.5 mph - N/A   Clear
2:55 AM 34.7 °F 30.6 °F 25.7 °F 70% 30.11 in 10.0 mi East 4.6 mph - N/A   Clear
3:15 AM 33.8 °F - 25.9 °F 73% 30.11 in 10.0 mi Calm Calm - N/A   Clear
3:35 AM 33.4 °F - 26.4 °F 75% 30.11 in 10.0 mi Calm Calm - N/A   Clear
3:55 AM 33.6 °F - 26.8 °F 76% 30.12 in 10.0 mi Calm Calm - N/A   Clear
4:15 AM 31.8 °F - 26.4 °F 80% 30.12 in 10.0 mi Calm Calm - N/A   Clear
4:35 AM 31.1 °F - 26.6 °F 83% 30.12 in 10.0 mi Calm Calm - N/A   Clear
4:55 AM 31.3 °F - 27.3 °F 85% 30.12 in 10.0 mi Calm Calm - N/A   Clear
5:15 AM 30.2 °F - 26.6 °F 86% 30.12 in 10.0 mi Calm Calm - N/A   Clear
5:35 AM 29.8 °F - 26.4 °F 87% 30.12 in 10.0 mi Calm Calm - N/A   Clear
5:55 AM 29.5 °F - 26.4 °F 88% 30.13 in 10.0 mi Calm Calm - N/A   Clear
6:15 AM 30.2 °F - 27.1 °F 88% 30.13 in 10.0 mi Calm Calm - N/A   Clear
6:35 AM 31.1 °F - 27.7 °F 87% 30.14 in 10.0 mi Calm Calm - N/A   Clear
6:55 AM 33.8 °F - 30.2 °F 87% 30.14 in 10.0 mi Calm Calm - N/A   Clear
7:15 AM 36.5 °F - 31.1 °F 81% 30.15 in 10.0 mi Calm Calm - N/A   Clear
7:35 AM 39.4 °F - 29.7 °F 68% 30.15 in 10.0 mi Calm Calm - N/A   Clear
7:55 AM 40.3 °F - 29.3 °F 65% 30.15 in 5.0 mi Calm Calm - N/A   Haze
8:15 AM 42.4 °F - 30.0 °F 61% 30.15 in 7.0 mi Calm Calm - N/A   Clear
8:35 AM 44.6 °F - 30.4 °F 57% 30.16 in 10.0 mi Calm Calm - N/A   Clear
8:55 AM 47.1 °F - 27.0 °F 46% 30.16 in 10.0 mi SSE 4.6 mph - N/A   Clear
9:15 AM 48.2 °F - 26.1 °F 42% 30.16 in 10.0 mi SSE 4.6 mph - N/A   Clear
9:35 AM 48.6 °F - 24.8 °F 39% 30.16 in 10.0 mi Calm Calm - N/A   Clear
9:55 AM 50.5 °F - 22.8 °F 34% 30.15 in 10.0 mi Calm Calm - N/A   Clear
10:15 AM 51.3 °F - 23.4 °F 34% 30.15 in 10.0 mi SW 3.5 mph - N/A   Clear
10:35 AM 52.2 °F - 23.2 °F 32% 30.15 in 10.0 mi Calm Calm - N/A   Clear
10:55 AM 53.4 °F - 23.5 °F 31% 30.15 in 10.0 mi West 5.8 mph - N/A   Clear
11:15 AM 55.6 °F - 22.1 °F 27% 30.14 in 10.0 mi West 6.9 mph - N/A   Clear
11:35 AM 55.6 °F - 20.7 °F 26% 30.14 in 10.0 mi West 8.1 mph - N/A   Clear
11:55 AM 56.5 °F - 21.6 °F 26% 30.13 in 10.0 mi WNW 5.8 mph - N/A   Clear
12:15 PM 56.5 °F - 21.4 °F 26% 30.12 in 10.0 mi NE 5.8 mph 10.4 mph N/A   Clear
12:35 PM 57.4 °F - 22.5 °F 26% 30.12 in 10.0 mi SW 3.5 mph - N/A   Clear
12:55 PM 57.7 °F - 21.7 °F 25% 30.10 in 10.0 mi NNW 3.5 mph - N/A   Clear
1:15 PM 59.2 °F - 19.4 °F 21% 30.09 in 10.0 mi SW 4.6 mph - N/A   Clear
1:35 PM 60.1 °F - 21.0 °F 22% 30.09 in 10.0 mi SW 10.4 mph - N/A   Clear
1:55 PM 60.6 °F - 20.8 °F 22% 30.07 in 10.0 mi SW 6.9 mph - N/A   Clear
2:15 PM 60.8 °F - 20.5 °F 21% 30.07 in 10.0 mi SSW 3.5 mph - N/A   Clear
2:35 PM 61.5 °F - 21.4 °F 21% 30.06 in 10.0 mi SW 8.1 mph - N/A   Clear
3:35 PM 63.0 °F - 20.7 °F 20% 30.03 in 10.0 mi SW 6.9 mph - N/A   Clear
3:55 PM 63.5 °F - 21.7 °F 20% 30.02 in 10.0 mi West 6.9 mph - N/A   Clear
4:15 PM 62.4 °F - 20.3 °F 20% 30.02 in 10.0 mi WSW 9.2 mph - N/A   Scattered Clouds
4:35 PM 61.9 °F - 23.0 °F 23% 30.02 in 10.0 mi SSW 6.9 mph - N/A   Mostly Cloudy
4:55 PM 61.3 °F - 23.0 °F 23% 30.01 in 10.0 mi SSW 5.8 mph - N/A   Overcast
5:15 PM 61.9 °F - 22.3 °F 22% 30.00 in 10.0 mi SSW 3.5 mph - N/A   Overcast
5:35 PM 62.2 °F - 25.3 °F 25% 29.95 in 10.0 mi SSE 9.2 mph - N/A   Overcast
5:55 PM 61.7 °F - 25.3 °F 25% 29.97 in 10.0 mi SSW 8.1 mph - N/A   Overcast
7:15 PM 61.2 °F - 28.4 °F 29% 29.96 in 10.0 mi SSW 8.1 mph - N/A   Overcast
7:35 PM 60.6 °F - 29.3 °F 31% 29.97 in 10.0 mi SSW 5.8 mph - N/A   Overcast
7:55 PM 59.9 °F - 29.5 °F 32% 29.96 in 10.0 mi South 4.6 mph - N/A   Mostly Cloudy
8:15 PM 58.8 °F - 32.2 °F 37% 29.96 in 10.0 mi South 4.6 mph - N/A   Overcast
8:35 PM 59.0 °F - 30.6 °F 34% 29.95 in 10.0 mi SSE 6.9 mph - N/A   Overcast
8:55 PM 58.5 °F - 30.4 °F 34% 29.94 in 10.0 mi SSE 8.1 mph - N/A   Overcast
9:15 PM 58.5 °F - 30.2 °F 34% 29.94 in 10.0 mi SSE 10.4 mph - N/A   Overcast
9:35 PM 58.1 °F - 30.4 °F 35% 29.93 in 10.0 mi South 9.2 mph - N/A   Mostly Cloudy
9:55 PM 57.9 °F - 30.7 °F 36% 29.92 in 10.0 mi South 10.4 mph - N/A   Mostly Cloudy
10:15 PM 57.6 °F - 31.1 °F 37% 29.91 in 10.0 mi South 11.5 mph 19.6 mph N/A   Scattered Clouds
10:35 PM 57.4 °F - 30.9 °F 37% 29.89 in 10.0 mi South 12.7 mph - N/A   Clear
10:55 PM 57.0 °F - 31.5 °F 38% 29.88 in 10.0 mi South 11.5 mph - N/A   Scattered Clouds
11:15 PM 56.7 °F - 32.0 °F 39% 29.87 in 10.0 mi South 9.2 mph - N/A   Mostly Cloudy
11:35 PM 57.4 °F - 31.8 °F 38% 29.87 in 10.0 mi South 13.8 mph - N/A   Scattered Clouds
11:55 PM 57.6 °F - 32.0 °F 38% 29.86 in 10.0 mi South 16.1 mph 20.7 mph N/A   Scattered Clouds